Location: Kellogg
(38.0159°N, 90.0546°W)
Time: 22:50:45
(UTC+00:00)

Vanguard 1 - Pass Details

Date: 21 September 2024
Orbit: 648 x 3825 km, 34.3° (Epoch: 12 October)

Event Time Altitude Azimuth Distance (km) Brightness Sun altitude
Rises 14:37:27 0° 218° (SW) 7,928 14.6 31.4°
Reaches altitude 10° 14:43:42 10° 212° (SSW) 6,747 14.4 32.5°
Maximum altitude 15:02:07 40° 152° (SSE) 3,698 14.5 35.6°
Drops below altitude 10° 15:13:49 10° 89° (E) 4,393 14.2 37.5°
Sets 15:16:51 0° 81° (E) 5,027 14.2 38.0°
